Weather History for EBBL - January, 2013

Change the Weather History Date:

Friday, January 18, 2013

  Actual Average (EHEH) Record (EHEH)
Temperature  
Mean Temperature 26 °F -  
Max Temperature 31 °F 42 °F - (-1)
Min Temperature 22 °F 33 °F - (-1)
Degree Days  
Heating Degree Days 38    
Moisture  
Dew Point 23 °F    
Average Humidity 84    
Maximum Humidity 100    
Minimum Humidity 68    
Precipitation  
Precipitation 0.00 in - - ()
Sea Level Pressure  
Sea Level Pressure 29.81 in    
Wind  
Wind Speed 4 mph ()    
Max Wind Speed 10 mph    
Max Gust Speed -    
Visibility 3.8 miles    
Events Snow    
Averages and records for this station are not official NWS values.
T = Trace of Precipitation, MM = Missing Value Source: Averaged Metar Reports

Daily Weather History Graph

Daily Weather History Graph

Search for Another Location

Airport or City:

Trip Planner

Search our weather history database for the weather conditions in past years. The results will help you decide how hot, cold, wet, or windy it might be!

Date:

Astronomy

Jan. 18, 2013 Rise Set
Actual Time 8:32 AM CET 5:04 PM CET
Civil Twilight 7:55 AM CET 5:42 PM CET
Nautical Twilight 7:13 AM CET 6:23 PM CET
Astronomical Twilight 6:34 AM CET 7:03 PM CET
Moon 11:08 AM CET (1/18) 12:31 AM CET (1/18)
Length of Visible Light 9h 47m
Length of Day
8h 32m
Waxing Crescent, 45% of the Moon is Illuminated
Jan 18
Waxing Crescent
Jan 19
First Quarter
Jan 27
Full
Feb 3
Last Quarter
Feb 10
New

Hourly Weather History & Observations

Time (CET) Temp. Windchill Dew Point Humidity Pressure Visibility Wind Dir Wind Speed Gust Speed Precip Events Conditions
12:25 AM 23.0 °F - 21.2 °F 93% 30.04 in 1.1 mi Calm Calm - N/A   Overcast
1:00 AM 23 °F - 21 °F 91% 30.05 in 1 mi 2.2 mph - -   Mist
1:25 AM 23.0 °F - 21.2 °F 93% 30.01 in 1.1 mi Variable 2.3 mph - N/A   Overcast
1:55 AM 23.0 °F - 21.2 °F 93% 30.01 in 1.1 mi Variable 2.3 mph - N/A   Overcast
2:25 AM 23.0 °F - 21.2 °F 93% 30.01 in 1.1 mi Variable 1.2 mph - N/A   Mostly Cloudy
2:55 AM 23.0 °F - 21.2 °F 93% 29.98 in 1.1 mi Variable 1.2 mph - N/A   Mostly Cloudy
3:25 AM 23.0 °F - 21.2 °F 93% 29.98 in 1.1 mi Variable 1.2 mph - N/A   Mostly Cloudy
3:55 AM 23.0 °F - 21.2 °F 93% 29.95 in 1.1 mi Variable 2.3 mph - N/A   Mostly Cloudy
4:00 AM 23 °F - 22 °F 94% 29.99 in 1 mi 2.2 mph - -   Mist
4:25 AM 23.0 °F - 23.0 °F 100% 29.95 in 1.1 mi Variable 1.2 mph - N/A   Mostly Cloudy
4:55 AM 23.0 °F - 23.0 °F 100% 29.95 in 1.1 mi Variable 2.3 mph - N/A   Mostly Cloudy
5:25 AM 24.8 °F - 23.0 °F 93% 29.92 in 1.6 mi Variable 1.2 mph - N/A   Mostly Cloudy
5:40 AM 24.8 °F - 23.0 °F 93% 29.92 in 1.6 mi Variable 1.2 mph - N/A   Mostly Cloudy
5:55 AM 24.8 °F 20.5 °F 23.0 °F 93% 29.92 in 1.6 mi Variable 3.5 mph - N/A Snow Light Snow Grains
6:25 AM 24.8 °F 20.5 °F 23.0 °F 93% 29.92 in 1.4 mi Variable 3.5 mph - N/A Snow Light Snow Grains
6:55 AM 24.8 °F - 23.0 °F 93% 29.92 in 1.2 mi Variable 2.3 mph - N/A Snow Light Snow Grains
7:00 AM 25 °F - 24 °F 92% 29.95 in 1 mi 2.2 mph - - Snow Snow Grains
7:25 AM 24.8 °F 20.5 °F 23.0 °F 93% 29.92 in 1.2 mi Variable 3.5 mph - N/A Snow Light Snow Grains
7:55 AM 24.8 °F 19.1 °F 23.0 °F 93% 29.92 in 1.2 mi East 4.6 mph - N/A Snow Light Snow Grains
8:25 AM 24.8 °F 19.1 °F 23.0 °F 93% 29.89 in 1.2 mi East 4.6 mph - N/A Snow Light Snow Grains
8:55 AM 26.6 °F 21.2 °F 23.0 °F 86% 29.89 in 1.2 mi East 4.6 mph - N/A Snow Light Snow Grains
9:25 AM 26.6 °F 20.0 °F 24.8 °F 93% 29.89 in 1.6 mi East 5.8 mph - N/A Snow Light Snow Grains
9:55 AM 26.6 °F 20.0 °F 24.8 °F 93% 29.89 in 1.6 mi East 5.8 mph - N/A Snow Light Snow Grains
10:00 AM 27 °F - 24 °F 85% 29.91 in 2 mi East 6.7 mph - - Snow Snow Grains
10:25 AM 26.6 °F 19.1 °F 24.8 °F 93% 29.86 in 1.8 mi East 6.9 mph - N/A   Mostly Cloudy
10:55 AM 28.4 °F 22.2 °F 24.8 °F 86% 29.86 in 1.9 mi East 5.8 mph - N/A   Mostly Cloudy
11:25 AM 28.4 °F 22.2 °F 24.8 °F 86% 29.86 in - East 5.8 mph - N/A   Mostly Cloudy
11:52 AM 28.4 °F 21.2 °F 24.8 °F 86% 29.83 in - East 6.9 mph - N/A   Mostly Cloudy
11:55 AM 28.4 °F 22.2 °F 24.8 °F 86% 29.83 in - East 5.8 mph - N/A   Mostly Cloudy
12:17 PM 28.4 °F 21.2 °F 24.8 °F 86% 29.83 in - East 6.9 mph - N/A   Mostly Cloudy
12:24 PM 28.4 °F 20.4 °F 23.0 °F 80% 29.80 in 3.1 mi East 8.1 mph - N/A   Mostly Cloudy
12:25 PM 28.4 °F 20.4 °F 23.0 °F 80% 29.80 in 3.1 mi East 8.1 mph - N/A   Mostly Cloudy
12:55 PM 30.2 °F 23.4 °F 24.8 °F 80% 29.80 in 4.3 mi East 6.9 mph - N/A   Mostly Cloudy
1:00 PM 30 °F - 25 °F 73% 29.82 in 4 mi East 6.7 mph - -   Partly Cloudy
1:25 PM 30.2 °F 23.4 °F 24.8 °F 80% 29.77 in 4.3 mi East 6.9 mph - N/A   Mostly Cloudy
1:27 PM 30.2 °F 23.4 °F 24.8 °F 80% 29.77 in 5.6 mi East 6.9 mph - N/A   Mostly Cloudy
1:39 PM 30.2 °F 22.6 °F 23.0 °F 75% 29.77 in 5.6 mi East 8.1 mph - N/A   Mostly Cloudy
1:55 PM 30.2 °F 22.6 °F 23.0 °F 75% 29.77 in 6.2 mi East 8.1 mph - N/A   Scattered Clouds
2:25 PM 30.2 °F 21.9 °F 23.0 °F 75% 29.74 in 6.2 mi East 9.2 mph - N/A   Scattered Clouds
2:55 PM 30.2 °F 22.6 °F 23.0 °F 75% 29.74 in 6.2 mi East 8.1 mph - N/A   Mostly Cloudy
3:25 PM 30.2 °F 23.4 °F 23.0 °F 75% 29.74 in 6.2 mi East 6.9 mph - N/A   Mostly Cloudy
3:55 PM 30.2 °F 23.4 °F 23.0 °F 75% 29.71 in 6.2 mi East 6.9 mph - N/A   Mostly Cloudy
4:00 PM 29 °F - 23 °F 68% 29.74 in 7 mi East 6.7 mph - -   Mostly Cloudy
4:25 PM 30.2 °F 23.4 °F 23.0 °F 75% 29.71 in 6.2 mi East 6.9 mph - N/A   Mostly Cloudy
4:55 PM 30.2 °F 22.6 °F 23.0 °F 75% 29.71 in 6.2 mi East 8.1 mph - N/A   Mostly Cloudy
5:25 PM 28.4 °F 20.4 °F 23.0 °F 80% 29.68 in 6.2 mi East 8.1 mph - N/A   Mostly Cloudy
5:55 PM 30.2 °F 22.6 °F 23.0 °F 75% 29.68 in 6.2 mi East 8.1 mph - N/A   Mostly Cloudy
6:25 PM 30.2 °F 21.9 °F 23.0 °F 75% 29.68 in 6.2 mi East 9.2 mph - N/A   Mostly Cloudy
6:55 PM 30.2 °F 22.6 °F 23.0 °F 75% 29.65 in 6.2 mi East 8.1 mph - N/A   Overcast
7:00 PM 29 °F - 23 °F 71% 29.68 in 7 mi East 6.7 mph - -   Mostly Cloudy
7:25 PM 30.2 °F 22.6 °F 23.0 °F 75% 29.65 in 6.2 mi East 8.1 mph - N/A   Mostly Cloudy
7:55 PM 30.2 °F 22.6 °F 23.0 °F 75% 29.62 in 6.2 mi East 8.1 mph - N/A   Mostly Cloudy
8:25 PM 30.2 °F 22.6 °F 23.0 °F 75% 29.62 in 6.2 mi East 8.1 mph - N/A   Mostly Cloudy
8:55 PM 28.4 °F 20.4 °F 23.0 °F 80% 29.62 in 6.2 mi East 8.1 mph - N/A   Mostly Cloudy
9:12 PM 30.2 °F 22.6 °F 23.0 °F 75% 29.62 in 6.2 mi East 8.1 mph - N/A   Overcast
9:25 PM 28.4 °F 20.4 °F 23.0 °F 80% 29.62 in 6.2 mi East 8.1 mph - N/A   Mostly Cloudy
9:55 PM 28.4 °F 20.4 °F 23.0 °F 80% 29.62 in 6.2 mi East 8.1 mph - N/A   Mostly Cloudy
10:00 PM 29 °F - 23 °F 71% 29.64 in 7 mi East 8.9 mph - -   Mostly Cloudy
10:25 PM 30.2 °F 22.6 °F 23.0 °F 75% 29.59 in 6.2 mi East 8.1 mph - N/A   Mostly Cloudy
10:55 PM 30.2 °F 22.6 °F 23.0 °F 75% 29.59 in 6.2 mi East 8.1 mph - N/A   Mostly Cloudy
11:25 PM 30.2 °F 21.9 °F 23.0 °F 75% 29.56 in 6.2 mi East 9.2 mph - N/A   Mostly Cloudy
11:55 PM 30.2 °F 21.3 °F 23.0 °F 75% 29.56 in 6.2 mi East 10.4 mph - N/A   Mostly Cloudy